| time (UTC) | temp F | wind direction | speed MPH | gust MPH | rain 1hr in | rain 24hr in | rain mn in | humidity % | barometer mb |
| 20260507040624 | 58 | 240 | 3.0 | 9.0 | 0.00 | 0.06 | 0.00 | 96 | 1006.7 |
| 20260507040130 | 58 | 256 | 2.0 | 9.0 | 0.00 | 0.06 | 0.06 | 96 | 1006.7 |
| 20260507035624 | 58 | 211 | 3.0 | 8.0 | 0.00 | 0.06 | 0.06 | 96 | 1006.6 |
| 20260507035134 | 58 | 259 | 1.0 | 6.0 | 0.00 | 0.06 | 0.06 | 96 | 1006.6 |
| 20260507034648 | 58 | 261 | 2.0 | 6.0 | 0.00 | 0.06 | 0.06 | 96 | 1006.6 |
| 20260507034137 | 58 | 229 | 2.0 | 7.0 | 0.00 | 0.06 | 0.06 | 96 | 1006.6 |
| 20260507033625 | 58 | 250 | 2.0 | 11.0 | 0.00 | 0.06 | 0.06 | 96 | 1006.6 |
| 20260507033131 | 58 | 225 | 5.0 | 12.0 | 0.00 | 0.06 | 0.06 | 96 | 1006.9 |
| 20260507032638 | 58 | 208 | 4.0 | 12.0 | 0.00 | 0.06 | 0.06 | 96 | 1006.8 |
| 20260507032126 | 57 | 200 | 5.0 | 10.0 | 0.00 | 0.06 | 0.06 | 96 | 1006.7 |
| 20260507031639 | 57 | 262 | 3.0 | 12.0 | 0.00 | 0.06 | 0.06 | 96 | 1006.5 |
| 20260507031143 | 57 | 204 | 7.0 | 12.0 | 0.00 | 0.06 | 0.06 | 96 | 1006.4 |
| 20260507030630 | 57 | 218 | 5.0 | 11.0 | 0.00 | 0.06 | 0.06 | 96 | 1006.6 |
| 20260507030139 | 57 | 198 | 5.0 | 10.0 | 0.00 | 0.06 | 0.06 | 96 | 1006.5 |
| 20260507025651 | 57 | 224 | 4.0 | 11.0 | 0.00 | 0.06 | 0.06 | 96 | 1006.4 |
| 20260507025138 | 57 | 247 | 3.0 | 11.0 | 0.00 | 0.06 | 0.06 | 96 | 1006.5 |
| 20260507024624 | 57 | 242 | 4.0 | 11.0 | 0.00 | 0.06 | 0.06 | 96 | 1006.5 |
| 20260507024128 | 57 | 242 | 4.0 | 11.0 | 0.00 | 0.06 | 0.06 | 96 | 1006.4 |
| 20260507023632 | 57 | 211 | 5.0 | 9.0 | 0.00 | 0.06 | 0.06 | 96 | 1006.4 |
| 20260507023121 | 57 | 213 | 4.0 | 9.0 | 0.00 | 0.06 | 0.06 | 96 | 1006.5 |
| 20260507022631 | 57 | 240 | 4.0 | 9.0 | 0.00 | 0.06 | 0.06 | 96 | 1006.5 |
| 20260507022136 | 57 | 243 | 3.0 | 10.0 | 0.00 | 0.06 | 0.06 | 96 | 1006.6 |
| 20260507021652 | 57 | 192 | 6.0 | 11.0 | 0.00 | 0.06 | 0.06 | 96 | 1006.6 |
| 20260507021150 | 57 | 242 | 3.0 | 11.0 | 0.00 | 0.06 | 0.06 | 96 | 1006.5 |
| 20260507020639 | 57 | 180 | 5.0 | 11.0 | 0.00 | 0.06 | 0.06 | 96 | 1006.3 |
| 20260507020132 | 57 | 209 | 5.0 | 11.0 | 0.00 | 0.06 | 0.06 | 96 | 1006.4 |
| 20260507015622 | 57 | 224 | 7.0 | 11.0 | 0.00 | 0.06 | 0.06 | 96 | 1006.6 |
| 20260507015151 | 57 | 205 | 6.0 | 11.0 | 0.00 | 0.06 | 0.06 | 96 | 1006.6 |
| 20260507014635 | 57 | 229 | 5.0 | 10.0 | 0.00 | 0.06 | 0.06 | 96 | 1006.6 |
| 20260507014125 | 57 | 192 | 6.0 | 12.0 | 0.00 | 0.06 | 0.06 | 96 | 1006.7 |
| 20260507013651 | 57 | 219 | 7.0 | 12.0 | 0.00 | 0.06 | 0.06 | 96 | 1006.6 |
| 20260507013122 | 57 | 203 | 6.0 | 12.0 | 0.00 | 0.06 | 0.06 | 96 | 1006.7 |
| 20260507012626 | 57 | 166 | 7.0 | 14.0 | 0.00 | 0.06 | 0.06 | 96 | 1006.8 |
| 20260507012150 | 57 | 218 | 4.0 | 14.0 | 0.00 | 0.06 | 0.06 | 96 | 1006.9 |
| 20260507011635 | 57 | 210 | 7.0 | 12.0 | 0.00 | 0.06 | 0.06 | 96 | 1007.0 |
| 20260507011125 | 57 | 226 | 5.0 | 12.0 | 0.00 | 0.06 | 0.06 | 96 | 1007.0 |
| 20260507010632 | 57 | 231 | 4.0 | 12.0 | 0.00 | 0.06 | 0.06 | 96 | 1006.9 |
| 20260507010122 | 57 | 216 | 8.0 | 13.0 | 0.00 | 0.06 | 0.06 | 96 | 1007.0 |
| 20260507005628 | 56 | 217 | 5.0 | 11.0 | 0.00 | 0.06 | 0.06 | 96 | 1007.0 |
| 20260507005148 | 56 | 219 | 7.0 | 12.0 | 0.00 | 0.06 | 0.06 | 96 | 1007.0 |
| 20260507004636 | 56 | 228 | 7.0 | 12.0 | 0.00 | 0.06 | 0.06 | 95 | 1007.0 |
| 20260507004124 | 56 | 229 | 5.0 | 10.0 | 0.00 | 0.06 | 0.06 | 95 | 1007.0 |
| 20260507003618 | 56 | 173 | 4.0 | 14.0 | 0.00 | 0.06 | 0.06 | 95 | 1006.9 |
| 20260507003123 | 56 | 242 | 9.0 | 13.0 | 0.00 | 0.06 | 0.06 | 95 | 1006.9 |
| 20260507002633 | 56 | 210 | 8.0 | 16.0 | 0.01 | 0.06 | 0.06 | 95 | 1006.8 |
| 20260507002155 | 56 | 223 | 7.0 | 14.0 | 0.01 | 0.06 | 0.06 | 95 | 1006.8 |
| 20260507001623 | 56 | 238 | 8.0 | 15.0 | 0.01 | 0.06 | 0.06 | 95 | 1006.9 |
| 20260507001136 | 56 | 197 | 9.0 | 18.0 | 0.01 | 0.06 | 0.06 | 95 | 1006.9 |
| 20260507000625 | 56 | 215 | 4.0 | 17.0 | 0.01 | 0.06 | 0.06 | 95 | 1006.8 |
| 20260507000148 | 56 | 205 | 6.0 | 17.0 | 0.01 | 0.06 | 0.06 | 95 | 1006.8 |
| 20260506235622 | 56 | 245 | 7.0 | 16.0 | 0.01 | 0.06 | 0.06 | 95 | 1006.8 |
| 20260506235131 | 56 | 207 | 6.0 | 18.0 | 0.02 | 0.06 | 0.06 | 95 | 1006.7 |
| 20260506234621 | 56 | 210 | 8.0 | 18.0 | 0.02 | 0.06 | 0.06 | 95 | 1006.7 |
| 20260506234143 | 56 | 230 | 6.0 | 13.0 | 0.02 | 0.06 | 0.06 | 95 | 1006.6 |
| 20260506233653 | 56 | 219 | 5.0 | 14.0 | 0.02 | 0.06 | 0.06 | 95 | 1006.6 |
| 20260506233143 | 56 | 199 | 7.0 | 17.0 | 0.03 | 0.06 | 0.06 | 95 | 1006.5 |
| 20260506232634 | 57 | 219 | 5.0 | 17.0 | 0.02 | 0.05 | 0.05 | 95 | 1006.6 |
| 20260506232124 | 57 | 209 | 6.0 | 13.0 | 0.02 | 0.05 | 0.05 | 94 | 1006.7 |
| 20260506231647 | 57 | 202 | 5.0 | 13.0 | 0.02 | 0.05 | 0.05 | 94 | 1006.7 |
| 20260506231138 | 57 | 197 | 3.0 | 14.0 | 0.02 | 0.05 | 0.05 | 94 | 1006.8 |
| 20260506230624 | 57 | 228 | 4.0 | 16.0 | 0.02 | 0.05 | 0.05 | 94 | 1006.8 |
| 20260506230147 | 57 | 254 | 5.0 | 16.0 | 0.02 | 0.05 | 0.05 | 94 | 1006.9 |
| 20260506225636 | 57 | 190 | 4.0 | 14.0 | 0.02 | 0.05 | 0.05 | 94 | 1006.8 |
| 20260506225122 | 57 | 210 | 5.0 | 14.0 | 0.02 | 0.04 | 0.04 | 94 | 1006.7 |
| 20260506224648 | 57 | 180 | 3.0 | 14.0 | 0.02 | 0.04 | 0.04 | 94 | 1006.7 |
| 20260506224136 | 57 | 191 | 5.0 | 18.0 | 0.02 | 0.04 | 0.04 | 94 | 1006.6 |
| 20260506223635 | 57 | 225 | 5.0 | 14.0 | 0.01 | 0.03 | 0.03 | 94 | 1006.6 |
| 20260506223153 | 58 | 207 | 5.0 | 15.0 | 0.02 | 0.03 | 0.03 | 94 | 1006.7 |
| 20260506222700 | 58 | 192 | 7.0 | 15.0 | 0.02 | 0.03 | 0.03 | 94 | 1006.6 |
| 20260506222128 | 58 | 205 | 5.0 | 15.0 | 0.02 | 0.03 | 0.03 | 94 | 1006.7 |
| 20260506221650 | 58 | 204 | 6.0 | 15.0 | 0.02 | 0.03 | 0.03 | 93 | 1006.8 |
| 20260506221122 | 58 | 170 | 4.0 | 14.0 | 0.02 | 0.03 | 0.03 | 93 | 1006.9 |
| 20260506220641 | 58 | 360 | 7.0 | 15.0 | 0.02 | 0.03 | 0.03 | 93 | 1007.0 |
| 20260506220131 | 58 | 200 | 7.0 | 12.0 | 0.02 | 0.03 | 0.03 | 93 | 1007.1 |
| 20260506215623 | 59 | 193 | 4.0 | 14.0 | 0.02 | 0.03 | 0.03 | 92 | 1007.1 |
| 20260506215145 | 59 | 191 | 9.0 | 16.0 | 0.01 | 0.02 | 0.02 | 92 | 1007.1 |
| 20260506214636 | 59 | 212 | 7.0 | 18.0 | 0.01 | 0.02 | 0.02 | 92 | 1007.0 |
| 20260506214147 | 60 | 209 | 4.0 | 18.0 | 0.01 | 0.02 | 0.02 | 91 | 1007.1 |
| 20260506213649 | 60 | 200 | 4.0 | 21.0 | 0.01 | 0.02 | 0.02 | 91 | 1007.2 |
| 20260506213154 | 60 | 204 | 12.0 | 21.0 | 0.00 | 0.01 | 0.01 | 91 | 1007.3 |
| 20260506212645 | 60 | 237 | 9.0 | 21.0 | 0.00 | 0.01 | 0.01 | 90 | 1007.3 |
| 20260506212132 | 60 | 198 | 12.0 | 22.0 | 0.00 | 0.01 | 0.01 | 90 | 1007.2 |
| 20260506211635 | 60 | 216 | 11.0 | 22.0 | 0.00 | 0.01 | 0.01 | 90 | 1007.4 |
| 20260506211158 | 60 | 228 | 10.0 | 22.0 | 0.00 | 0.01 | 0.01 | 90 | 1007.4 |
| 20260506210627 | 60 | 242 | 6.0 | 20.0 | 0.00 | 0.01 | 0.01 | 91 | 1007.5 |
| 20260506210156 | 60 | 244 | 9.0 | 20.0 | 0.00 | 0.01 | 0.01 | 91 | 1007.5 |
| 20260506205623 | 60 | 161 | 7.0 | 21.0 | 0.00 | 0.01 | 0.01 | 91 | 1007.4 |
| 20260506205127 | 60 | 234 | 8.0 | 21.0 | 0.00 | 0.01 | 0.01 | 91 | 1007.4 |
| 20260506204652 | 60 | 222 | 10.0 | 21.0 | 0.00 | 0.01 | 0.01 | 91 | 1007.5 |
| 20260506204140 | 60 | 222 | 8.0 | 23.0 | 0.00 | 0.01 | 0.01 | 90 | 1007.6 |
| 20260506203629 | 60 | 219 | 7.0 | 23.0 | 0.01 | 0.01 | 0.01 | 90 | 1007.5 |
| 20260506203155 | 61 | 245 | 8.0 | 23.0 | 0.01 | 0.01 | 0.01 | 90 | 1007.7 |
| 20260506202645 | 61 | 232 | 6.0 | 23.0 | 0.01 | 0.01 | 0.01 | 90 | 1007.7 |
| 20260506202155 | 61 | 210 | 7.0 | 19.0 | 0.01 | 0.01 | 0.01 | 90 | 1007.7 |
| 20260506201658 | 61 | 198 | 12.0 | 23.0 | 0.01 | 0.01 | 0.01 | 89 | 1007.6 |
| 20260506201126 | 61 | 228 | 10.0 | 23.0 | 0.01 | 0.01 | 0.01 | 89 | 1007.8 |
| 20260506200650 | 61 | 198 | 11.0 | 23.0 | 0.01 | 0.01 | 0.01 | 89 | 1007.8 |
| 20260506200141 | 61 | 226 | 12.0 | 23.0 | 0.01 | 0.01 | 0.01 | 89 | 1007.9 |
| 20260506195626 | 61 | 190 | 9.0 | 25.0 | 0.01 | 0.01 | 0.01 | 88 | 1007.7 |
| 20260506195149 | 62 | 232 | 7.0 | 25.0 | 0.01 | 0.01 | 0.01 | 88 | 1007.8 |
| 20260506194656 | 62 | 218 | 13.0 | 24.0 | 0.01 | 0.01 | 0.01 | 87 | 1007.7 |
| 20260506194123 | 62 | 210 | 8.0 | 18.0 | 0.01 | 0.01 | 0.01 | 87 | 1007.8 |
| 20260506193626 | 62 | 213 | 8.0 | 19.0 | 0.00 | 0.00 | 0.00 | 85 | 1007.9 |
| 20260506193128 | 63 | 232 | 7.0 | 18.0 | 0.00 | 0.00 | 0.00 | 84 | 1007.9 |
| 20260506192651 | 63 | 225 | 4.0 | 22.0 | 0.00 | 0.00 | 0.00 | 84 | 1008.0 |
| 20260506192138 | 63 | 202 | 12.0 | 22.0 | 0.00 | 0.00 | 0.00 | 82 | 1007.9 |
| 20260506191632 | 64 | 196 | 9.0 | 24.0 | 0.00 | 0.00 | 0.00 | 81 | 1007.9 |
| 20260506191155 | 64 | 219 | 12.0 | 33.0 | 0.00 | 0.00 | 0.00 | 79 | 1008.0 |
| 20260506190700 | 65 | 219 | 13.0 | 23.0 | 0.00 | 0.00 | 0.00 | 77 | 1008.0 |
| 20260506190127 | 65 | 261 | 9.0 | 23.0 | 0.00 | 0.00 | 0.00 | 76 | 1008.0 |
| 20260506185631 | 65 | 243 | 9.0 | 23.0 | 0.00 | 0.00 | 0.00 | 75 | 1008.1 |
| 20260506185158 | 65 | 221 | 16.0 | 23.0 | 0.00 | 0.00 | 0.00 | 75 | 1008.2 |
| 20260506184640 | 66 | 198 | 12.0 | 25.0 | 0.00 | 0.00 | 0.00 | 75 | 1008.0 |
| 20260506184127 | 66 | 222 | 9.0 | 23.0 | 0.00 | 0.00 | 0.00 | 75 | 1007.9 |
| 20260506183640 | 66 | 196 | 13.0 | 29.0 | 0.00 | 0.00 | 0.00 | 74 | 1008.1 |
| 20260506183146 | 66 | 202 | 13.0 | 29.0 | 0.00 | 0.00 | 0.00 | 73 | 1008.1 |
| 20260506182632 | 66 | 236 | 12.0 | 22.0 | 0.00 | 0.00 | 0.00 | 73 | 1008.2 |
| 20260506182123 | 67 | 205 | 11.0 | 30.0 | 0.00 | 0.00 | 0.00 | 73 | 1008.3 |
| 20260506181630 | 67 | 230 | 12.0 | 21.0 | 0.00 | 0.00 | 0.00 | 72 | 1008.4 |
| 20260506181133 | 67 | 191 | 12.0 | 29.0 | 0.00 | 0.00 | 0.00 | 72 | 1008.2 |
| 20260506180624 | 67 | 224 | 15.0 | 29.0 | 0.00 | 0.00 | 0.00 | 71 | 1008.3 |
| 20260506180147 | 68 | 214 | 15.0 | 26.0 | 0.00 | 0.00 | 0.00 | 70 | 1008.3 |
| 20260506175635 | 68 | 193 | 12.0 | 26.0 | 0.00 | 0.00 | 0.00 | 71 | 1008.5 |
| 20260506175123 | 69 | 200 | 13.0 | 23.0 | 0.00 | 0.00 | 0.00 | 69 | 1008.5 |
| 20260506174641 | 69 | 167 | 7.0 | 27.0 | 0.00 | 0.00 | 0.00 | 70 | 1008.5 |
| 20260506174135 | 69 | 213 | 18.0 | 27.0 | 0.00 | 0.00 | 0.00 | 69 | 1008.6 |
| 20260506173627 | 70 | 221 | 12.0 | 30.0 | 0.00 | 0.00 | 0.00 | 68 | 1008.7 |
| 20260506173147 | 70 | 213 | 14.0 | 30.0 | 0.00 | 0.00 | 0.00 | 67 | 1008.8 |
| 20260506172624 | 70 | 165 | 11.0 | 27.0 | 0.00 | 0.00 | 0.00 | 69 | 1008.9 |
| 20260506172127 | 70 | 207 | 12.0 | 27.0 | 0.00 | 0.00 | 0.00 | 70 | 1008.9 |
| 20260506171630 | 70 | 167 | 15.0 | 35.0 | 0.00 | 0.00 | 0.00 | 68 | 1008.7 |
| 20260506171124 | 71 | 196 | 7.0 | 35.0 | 0.00 | 0.00 | 0.00 | 66 | 1008.8 |
| 20260506170633 | 71 | 169 | 13.0 | 29.0 | 0.00 | 0.00 | 0.00 | 67 | 1008.6 |
| 20260506170154 | 71 | 186 | 15.0 | 29.0 | 0.00 | 0.00 | 0.00 | 67 | 1008.6 |
| 20260506165627 | 71 | 203 | 12.0 | 28.0 | 0.00 | 0.00 | 0.00 | 69 | 1008.7 |
| 20260506165124 | 70 | 199 | 11.0 | 27.0 | 0.00 | 0.00 | 0.00 | 70 | 1008.8 |
| 20260506164627 | 70 | 238 | 12.0 | 27.0 | 0.00 | 0.00 | 0.00 | 69 | 1009.0 |
| 20260506164158 | 70 | 225 | 13.0 | 25.0 | 0.00 | 0.00 | 0.00 | 68 | 1008.9 |
| 20260506163639 | 70 | 165 | 9.0 | 21.0 | 0.00 | 0.00 | 0.00 | 68 | 1009.1 |
| 20260506163128 | 70 | 164 | 11.0 | 24.0 | 0.00 | 0.00 | 0.00 | 70 | 1009.2 |
| 20260506162630 | 70 | 180 | 13.0 | 24.0 | 0.00 | 0.00 | 0.00 | 70 | 1009.2 |
| 20260506162134 | 70 | 199 | 8.0 | 23.0 | 0.00 | 0.00 | 0.00 | 70 | 1009.4 |
| 20260506161622 | 70 | 180 | 8.0 | 20.0 | 0.00 | 0.00 | 0.00 | 69 | 1009.3 |
| 20260506161210 | 70 | 219 | 11.0 | 21.0 | 0.00 | 0.00 | 0.00 | 69 | 1009.5 |
| 20260506160621 | 70 | 216 | 8.0 | 18.0 | 0.00 | 0.00 | 0.00 | 70 | 1009.5 |
| 20260506160124 | 70 | 207 | 7.0 | 21.0 | 0.00 | 0.00 | 0.00 | 70 | 1009.5 |
| 20260506155647 | 70 | 190 | 9.0 | 24.0 | 0.00 | 0.00 | 0.00 | 70 | 1009.6 |
| 20260506155213 | 70 | 175 | 10.0 | 24.0 | 0.00 | 0.00 | 0.00 | 70 | 1009.8 |
| 20260506154640 | 70 | 204 | 10.0 | 24.0 | 0.00 | 0.00 | 0.00 | 70 | 1009.8 |
| 20260506154131 | 70 | 196 | 9.0 | 29.0 | 0.00 | 0.00 | 0.00 | 70 | 1009.8 |
| 20260506153620 | 70 | 192 | 12.0 | 29.0 | 0.00 | 0.00 | 0.00 | 69 | 1009.8 |
| 20260506153145 | 71 | 207 | 11.0 | 19.0 | 0.00 | 0.00 | 0.00 | 69 | 1009.8 |
| 20260506152642 | 70 | 219 | 10.0 | 19.0 | 0.00 | 0.00 | 0.00 | 69 | 1010.1 |
| 20260506152127 | 70 | 268 | 5.0 | 20.0 | 0.00 | 0.00 | 0.00 | 72 | 1010.1 |
| 20260506151630 | 70 | 213 | 12.0 | 24.0 | 0.00 | 0.00 | 0.00 | 70 | 1010.1 |
| 20260506151123 | 69 | 209 | 14.0 | 24.0 | 0.00 | 0.00 | 0.00 | 71 | 1010.1 |
| 20260506150633 | 69 | 213 | 11.0 | 24.0 | 0.00 | 0.00 | 0.00 | 71 | 1010.1 |
| 20260506150122 | 68 | 200 | 7.0 | 22.0 | 0.00 | 0.00 | 0.00 | 71 | 1010.3 |
| 20260506145628 | 68 | 184 | 11.0 | 22.0 | 0.00 | 0.00 | 0.00 | 71 | 1010.2 |
| 20260506145135 | 68 | 265 | 13.0 | 22.0 | 0.00 | 0.00 | 0.00 | 72 | 1010.2 |
| 20260506144625 | 68 | 201 | 10.0 | 23.0 | 0.00 | 0.00 | 0.00 | 71 | 1010.2 |
| 20260506144128 | 68 | 196 | 12.0 | 28.0 | 0.00 | 0.00 | 0.00 | 72 | 1010.1 |
| 20260506143636 | 68 | 219 | 14.0 | 26.0 | 0.00 | 0.00 | 0.00 | 71 | 1010.1 |
| 20260506143124 | 69 | 231 | 11.0 | 22.0 | 0.00 | 0.00 | 0.00 | 70 | 1010.0 |
| 20260506142627 | 68 | 220 | 14.0 | 25.0 | 0.00 | 0.00 | 0.00 | 72 | 1009.9 |
| 20260506142133 | 68 | 195 | 10.0 | 25.0 | 0.00 | 0.00 | 0.00 | 72 | 1010.0 |
| 20260506141652 | 68 | 250 | 14.0 | 25.0 | 0.00 | 0.00 | 0.00 | 71 | 1010.1 |
| 20260506141214 | 68 | 197 | 14.0 | 25.0 | 0.00 | 0.00 | 0.00 | 72 | 1010.1 |
| 20260506140641 | 68 | 225 | 14.0 | 24.0 | 0.00 | 0.00 | 0.00 | 73 | 1010.1 |
| 20260506140134 | 68 | 213 | 11.0 | 26.0 | 0.00 | 0.00 | 0.00 | 72 | 1010.0 |
| 20260506135627 | 67 | 193 | 8.0 | 26.0 | 0.00 | 0.00 | 0.00 | 73 | 1010.0 |
| 20260506135146 | 67 | 215 | 7.0 | 21.0 | 0.00 | 0.00 | 0.00 | 76 | 1009.9 |
| 20260506134653 | 66 | 171 | 7.0 | 21.0 | 0.00 | 0.00 | 0.00 | 75 | 1010.0 |
| 20260506134122 | 67 | 178 | 11.0 | 21.0 | 0.00 | 0.00 | 0.00 | 75 | 1010.1 |
| 20260506133628 | 67 | 210 | 10.0 | 20.0 | 0.00 | 0.00 | 0.00 | 75 | 1010.3 |
| 20260506133136 | 67 | 205 | 10.0 | 21.0 | 0.00 | 0.00 | 0.00 | 75 | 1010.6 |
| 20260506132621 | 66 | 160 | 4.0 | 22.0 | 0.00 | 0.00 | 0.00 | 75 | 1010.6 |
| 20260506132200 | 66 | 193 | 7.0 | 22.0 | 0.00 | 0.00 | 0.00 | 76 | 1010.5 |
| 20260506131626 | 66 | 167 | 6.0 | 18.0 | 0.00 | 0.00 | 0.00 | 77 | 1010.6 |
| 20260506131128 | 65 | 219 | 10.0 | 23.0 | 0.00 | 0.00 | 0.00 | 76 | 1010.7 |
| 20260506130635 | 65 | 143 | 12.0 | 24.0 | 0.00 | 0.00 | 0.00 | 78 | 1010.6 |
| 20260506130122 | 65 | 215 | 12.0 | 24.0 | 0.00 | 0.00 | 0.00 | 79 | 1010.6 |
| 20260506125640 | 64 | 187 | 8.0 | 16.0 | 0.00 | 0.00 | 0.00 | 79 | 1010.7 |
| 20260506125127 | 64 | 247 | 9.0 | 17.0 | 0.00 | 0.00 | 0.00 | 81 | 1010.7 |
| 20260506124622 | 63 | 211 | 8.0 | 21.0 | 0.00 | 0.00 | 0.00 | 81 | 1010.7 |
| 20260506124145 | 63 | 187 | 11.0 | 22.0 | 0.00 | 0.00 | 0.00 | 81 | 1010.7 |
| 20260506123636 | 63 | 251 | 11.0 | 22.0 | 0.00 | 0.00 | 0.00 | 81 | 1010.7 |
| 20260506123121 | 63 | 223 | 11.0 | 21.0 | 0.00 | 0.00 | 0.00 | 82 | 1010.7 |
| 20260506122645 | 63 | 232 | 12.0 | 21.0 | 0.00 | 0.00 | 0.00 | 82 | 1010.6 |
| 20260506122138 | 63 | 200 | 7.0 | 18.0 | 0.00 | 0.00 | 0.00 | 81 | 1010.6 |
| 20260506121630 | 62 | 200 | 7.0 | 23.0 | 0.00 | 0.00 | 0.00 | 84 | 1010.5 |
| 20260506121152 | 62 | 188 | 8.0 | 23.0 | 0.00 | 0.00 | 0.00 | 84 | 1010.6 |
| 20260506120630 | 61 | 169 | 6.0 | 15.0 | 0.00 | 0.00 | 0.00 | 84 | 1010.7 |
| 20260506120143 | 61 | 226 | 7.0 | 20.0 | 0.00 | 0.00 | 0.00 | 86 | 1010.9 |
| 20260506115644 | 60 | 201 | 10.0 | 20.0 | 0.00 | 0.00 | 0.00 | 87 | 1011.0 |
| 20260506115131 | 60 | 214 | 9.0 | 19.0 | 0.00 | 0.00 | 0.00 | 86 | 1011.0 |
| 20260506114715 | 60 | 168 | 8.0 | 20.0 | 0.00 | 0.00 | 0.00 | 86 | 1011.1 |
| 20260506114125 | 60 | 223 | 9.0 | 20.0 | 0.00 | 0.00 | 0.00 | 86 | 1011.0 |
| 20260506113631 | 60 | 227 | 9.0 | 16.0 | 0.00 | 0.00 | 0.00 | 87 | 1011.2 |
| 20260506113153 | 60 | 207 | 9.0 | 18.0 | 0.00 | 0.00 | 0.00 | 87 | 1011.1 |
| 20260506112623 | 60 | 235 | 9.0 | 18.0 | 0.00 | 0.00 | 0.00 | 87 | 1011.2 |
| 20260506112132 | 59 | 193 | 9.0 | 17.0 | 0.00 | 0.00 | 0.00 | 88 | 1011.2 |
| 20260506111635 | 59 | 169 | 7.0 | 18.0 | 0.00 | 0.00 | 0.00 | 89 | 1011.1 |
| 20260506111138 | 58 | 198 | 8.0 | 16.0 | 0.00 | 0.00 | 0.00 | 90 | 1011.0 |
| 20260506110705 | 58 | 196 | 7.0 | 16.0 | 0.00 | 0.00 | 0.00 | 90 | 1011.1 |
| 20260506110117 | 57 | 203 | 9.0 | 13.0 | 0.00 | 0.00 | 0.00 | 90 | 1011.1 |
| 20260506105634 | 57 | 169 | 7.0 | 13.0 | 0.00 | 0.00 | 0.00 | 90 | 1011.1 |
| 20260506105122 | 57 | 217 | 7.0 | 13.0 | 0.00 | 0.00 | 0.00 | 89 | 1011.1 |
| 20260506104629 | 57 | 203 | 7.0 | 14.0 | 0.00 | 0.00 | 0.00 | 89 | 1011.1 |
| 20260506104136 | 57 | 221 | 6.0 | 12.0 | 0.00 | 0.00 | 0.00 | 89 | 1011.1 |
| 20260506103623 | 57 | 192 | 6.0 | 18.0 | 0.00 | 0.00 | 0.00 | 90 | 1011.2 |
| 20260506103146 | 57 | 186 | 6.0 | 18.0 | 0.00 | 0.00 | 0.00 | 90 | 1011.1 |
| 20260506102632 | 57 | 202 | 8.0 | 17.0 | 0.00 | 0.00 | 0.00 | 90 | 1011.0 |
| 20260506102121 | 57 | 200 | 5.0 | 17.0 | 0.00 | 0.00 | 0.00 | 90 | 1011.1 |
| 20260506101700 | 57 | 178 | 5.0 | 12.0 | 0.00 | 0.00 | 0.00 | 89 | 1011.1 |
| 20260506101131 | 57 | 165 | 4.0 | 10.0 | 0.00 | 0.00 | 0.00 | 89 | 1011.0 |
| 20260506100638 | 57 | 180 | 4.0 | 15.0 | 0.00 | 0.00 | 0.00 | 89 | 1011.0 |
| 20260506100123 | 57 | 173 | 7.0 | 15.0 | 0.00 | 0.00 | 0.00 | 89 | 1010.8 |
| 20260506095633 | 57 | 224 | 8.0 | 15.0 | 0.00 | 0.00 | 0.00 | 89 | 1010.9 |
| 20260506095152 | 57 | 200 | 7.0 | 15.0 | 0.00 | 0.00 | 0.00 | 89 | 1010.8 |
| 20260506094626 | 57 | 192 | 6.0 | 16.0 | 0.00 | 0.00 | 0.00 | 89 | 1010.7 |
| 20260506094150 | 57 | 186 | 4.0 | 12.0 | 0.00 | 0.00 | 0.00 | 89 | 1010.7 |
| 20260506093640 | 58 | 196 | 2.0 | 14.0 | 0.00 | 0.00 | 0.00 | 89 | 1010.8 |
| 20260506093129 | 58 | 184 | 8.0 | 14.0 | 0.00 | 0.00 | 0.00 | 88 | 1010.7 |
| 20260506092633 | 58 | 204 | 8.0 | 13.0 | 0.00 | 0.00 | 0.00 | 88 | 1010.8 |
| 20260506092138 | 58 | 215 | 5.0 | 15.0 | 0.00 | 0.00 | 0.00 | 88 | 1010.7 |
| 20260506091626 | 58 | 202 | 7.0 | 15.0 | 0.00 | 0.00 | 0.00 | 88 | 1010.7 |
| 20260506091132 | 58 | 188 | 5.0 | 15.0 | 0.00 | 0.00 | 0.00 | 88 | 1010.8 |
| 20260506090639 | 58 | 209 | 8.0 | 13.0 | 0.00 | 0.00 | 0.00 | 88 | 1010.8 |
| 20260506090125 | 58 | 242 | 7.0 | 19.0 | 0.00 | 0.00 | 0.00 | 88 | 1010.9 |
| 20260506085704 | 58 | 202 | 9.0 | 19.0 | 0.00 | 0.00 | 0.00 | 88 | 1011.0 |
| 20260506085129 | 58 | 273 | 7.0 | 16.0 | 0.00 | 0.00 | 0.00 | 87 | 1011.0 |
| 20260506084639 | 58 | 179 | 11.0 | 16.0 | 0.00 | 0.00 | 0.00 | 87 | 1011.0 |
| 20260506084149 | 58 | 243 | 7.0 | 15.0 | 0.00 | 0.00 | 0.00 | 87 | 1011.0 |
| 20260506083652 | 58 | 229 | 6.0 | 15.0 | 0.00 | 0.00 | 0.00 | 87 | 1011.1 |
| 20260506083142 | 58 | 196 | 7.0 | 16.0 | 0.00 | 0.00 | 0.00 | 87 | 1011.1 |
| 20260506082632 | 58 | 253 | 5.0 | 16.0 | 0.00 | 0.00 | 0.00 | 87 | 1011.0 |
| 20260506082122 | 58 | 251 | 6.0 | 14.0 | 0.00 | 0.00 | 0.00 | 87 | 1011.0 |
| 20260506081644 | 58 | 174 | 7.0 | 16.0 | 0.00 | 0.00 | 0.00 | 87 | 1011.0 |
| 20260506081134 | 58 | 213 | 7.0 | 16.0 | 0.00 | 0.00 | 0.00 | 87 | 1011.1 |
| 20260506080640 | 58 | 242 | 6.0 | 14.0 | 0.00 | 0.00 | 0.00 | 86 | 1011.0 |
| 20260506080143 | 58 | 205 | 5.0 | 14.0 | 0.00 | 0.00 | 0.00 | 86 | 1011.0 |
| 20260506073140 | 59 | 233 | 7.0 | 17.0 | 0.00 | 0.00 | 0.00 | 85 | 1010.9 |
| 20260506072627 | 59 | 163 | 7.0 | 19.0 | 0.00 | 0.00 | 0.00 | 85 | 1010.9 |
| 20260506072120 | 59 | 183 | 10.0 | 19.0 | 0.00 | 0.00 | 0.00 | 85 | 1010.9 |
| 20260506071643 | 59 | 230 | 8.0 | 17.0 | 0.00 | 0.00 | 0.00 | 85 | 1010.9 |
| 20260506071129 | 59 | 194 | 8.0 | 17.0 | 0.00 | 0.00 | 0.00 | 85 | 1010.8 |
| 20260506070621 | 59 | 198 | 9.0 | 19.0 | 0.00 | 0.00 | 0.00 | 85 | 1010.8 |
| 20260506070147 | 59 | 210 | 10.0 | 19.0 | 0.00 | 0.00 | 0.00 | 85 | 1010.8 |
| 20260506062132 | 59 | 225 | 7.0 | 17.0 | 0.00 | 0.00 | 0.00 | 83 | 1010.8 |
| 20260506061637 | 59 | 213 | 9.0 | 17.0 | 0.00 | 0.00 | 0.00 | 83 | 1010.8 |
| 20260506061140 | 59 | 223 | 7.0 | 19.0 | 0.00 | 0.00 | 0.00 | 82 | 1010.8 |
| 20260506060627 | 59 | 206 | 6.0 | 19.0 | 0.00 | 0.00 | 0.00 | 82 | 1010.8 |
| 20260506060134 | 59 | 238 | 7.0 | 18.0 | 0.00 | 0.00 | 0.00 | 82 | 1010.8 |
| 20260506051133 | 60 | 225 | 7.0 | 17.0 | 0.00 | 0.00 | 0.00 | 79 | 1011.2 |
| 20260506050620 | 60 | 219 | 11.0 | 17.0 | 0.00 | 0.00 | 0.00 | 79 | 1011.2 |
| 20260506050127 | 60 | 193 | 5.0 | 14.0 | 0.00 | 0.00 | 0.00 | 79 | 1011.3 |
| 20260506045122 | 60 | 223 | 7.0 | 14.0 | 0.00 | 0.00 | 0.00 | 79 | 1011.2 |
| 20260506044633 | 60 | 181 | 9.0 | 16.0 | 0.00 | 0.00 | 0.00 | 78 | 1011.3 |
| 20260506044123 | 60 | 240 | 6.0 | 18.0 | 0.00 | 0.00 | 0.00 | 78 | 1011.3 |
| 20260506043626 | 60 | 215 | 10.0 | 18.0 | 0.00 | 0.00 | 0.00 | 78 | 1011.3 |
| 20260506043135 | 60 | 222 | 6.0 | 16.0 | 0.00 | 0.00 | 0.00 | 78 | 1011.3 |
| 20260506042654 | 60 | 236 | 9.0 | 15.0 | 0.00 | 0.00 | 0.00 | 78 | 1011.3 |
| 20260506042139 | 60 | 184 | 7.0 | 15.0 | 0.00 | 0.00 | 0.00 | 77 | 1011.3 |
| 20260506041626 | 60 | 217 | 7.0 | 14.0 | 0.00 | 0.00 | 0.00 | 77 | 1011.4 |
| 20260506041132 | 60 | 223 | 6.0 | 16.0 | 0.00 | 0.00 | 0.00 | 77 | 1011.3 |
| 20260506040639 | 60 | 213 | 7.0 | 19.0 | 0.00 | 0.00 | 0.00 | 77 | 1011.3 |